Vorticity
6 4 1 2 7 8 5 4 6 6 9 15 9 5 10 5 1 7 10 11 5 0 4 3 1 4 4 5 6 4 1 1 3 5 5 5 6 8 7 4 6 7 7 7 7 7 7 7 7 7 7 7 7 7 7 7 7 8 8 8 8 6 5 4 2 4 7 8 9 8 6 5 5 5 4 4 4 4 4 4 5 5 5 5 4 4
5 4 3 6 7 5 6 5 6 5 1 8 9 8 10 -0 0 14 13 11 9 2 4 4 1 3 4 3 3 2 2 2 3 5 5 4 4 5 7 8 7 7 7 6 6 7 7 7 7 7 6 6 6 6 6 5 6 7 8 8 8 6 5 4 4 7 9 9 8 7 5 5 5 4 4 3 3 3 3 4 4 4 4 4 5 5
4 4 4 10 9 5 8 7 7 2 -6 1 6 8 9 -6 -1 22 20 10 6 2 3 5 3 2 3 2 1 1 0 1 3 4 5 2 2 4 4 6 7 7 8 6 5 7 7 7 7 6 7 6 6 6 6 6 7 8 9 9 8 7 6 6 7 8 9 8 7 5 4 5 4 3 3 2 3 3 3 3 2 2 1 2 3 3
2 3 5 8 7 6 10 8 6 3 2 7 6 8 8 -7 -5 13 16 11 6 3 3 4 5 2 3 4 2 3 3 3 4 3 5 2 0 3 4 3 3 5 7 6 6 6 5 6 7 7 7 7 8 8 8 7 8 9 10 11 9 8 8 7 8 8 7 7 6 5 4 4 4 2 2 2 3 3 3 2 1 0 1 1 2 2
2 3 5 6 7 11 10 5 3 5 9 10 9 11 8 0 1 3 9 14 6 2 3 3 5 1 4 8 5 4 4 5 7 5 5 4 2 3 4 3 2 3 5 6 6 6 5 5 5 7 7 6 6 7 8 7 8 9 9 10 10 9 9 8 8 7 6 6 5 5 4 3 3 2 2 3 2 3 2 2 0 -0 1 1 2 2
3 3 2 5 10 10 5 4 5 4 3 5 14 15 6 7 8 -1 5 14 9 5 2 -1 2 4 6 6 3 5 5 4 6 7 7 5 4 5 4 3 4 5 4 5 7 7 7 6 4 5 5 6 7 5 6 6 6 7 6 8 8 8 9 7 7 6 5 5 4 4 4 3 3 2 2 2 2 3 2 1 1 1 1 1 2 3
4 2 1 4 11 7 1 5 8 4 2 5 16 14 3 9 13 4 4 7 7 7 3 -1 -2 1 8 7 1 3 3 -0 -0 1 5 7 8 8 6 4 4 5 5 4 6 6 6 8 7 8 6 5 6 5 6 6 4 4 4 4 5 5 6 5 5 5 4 4 3 3 3 2 3 2 2 2 2 2 2 2 2 1 2 3 5 8
5 3 4 4 10 7 -0 5 8 8 4 -1 6 10 4 9 12 6 2 2 6 5 3 8 1 -7 4 9 3 3 0 -2 0 0 1 6 10 11 8 8 7 6 7 6 7 7 5 6 7 8 9 6 6 6 6 6 5 5 5 3 4 3 2 2 3 4 3 3 3 3 3 3 3 3 3 3 4 4 5 6 6 6 7 9 11 13
7 5 6 3 8 7 0 5 8 8 5 -4 4 13 7 7 10 6 1 1 6 3 -0 7 5 -5 -1 7 4 3 3 3 7 5 4 6 9 12 9 9 11 8 8 8 8 9 8 8 7 5 6 6 6 7 6 6 6 6 7 5 4 3 2 3 3 3 3 3 4 4 4 4 4 3 3 3 5 7 9 11 12 12 12 13 15 14
7 7 7 3 7 6 2 6 4 9 9 -4 3 12 3 3 7 4 4 2 0 12 14 3 7 8 1 4 4 -0 3 8 10 4 4 8 5 7 8 5 8 9 9 10 9 11 10 9 9 6 6 6 5 6 5 5 6 6 6 5 5 4 4 4 3 3 4 3 4 4 4 4 3 4 4 5 7 9 13 13 13 12 12 14 14 11
7 8 7 5 7 5 8 7 -1 11 14 -4 -5 -4 -12 -2 5 2 11 8 -9 11 25 -1 1 16 6 2 0 -0 7 6 6 4 0 4 2 4 8 4 5 8 10 12 10 11 11 8 9 8 9 8 5 6 5 5 5 4 5 5 6 7 6 6 5 6 6 6 6 5 5 5 6 7 5 6 10 12 12 10 9 9 11 14 12 8
10 10 8 6 6 4 11 7 -2 11 11 -3 -4 -11 -16 -3 4 -1 10 13 -14 -7 17 3 -3 4 1 8 3 3 13 1 1 11 7 9 6 3 4 -1 -1 1 3 7 7 10 11 9 10 9 10 11 8 7 6 5 4 3 4 4 6 8 8 8 7 8 8 8 8 7 8 9 9 8 6 8 12 11 10 9 8 8 10 11 9 6
15 13 10 8 7 3 9 8 3 12 8 -1 -0 -2 -3 -1 0 -3 4 16 -2 -13 1 2 5 2 -3 13 9 -2 7 3 6 15 9 6 2 -2 2 -2 -4 -3 -2 1 2 5 8 8 9 8 9 12 13 12 8 6 6 6 6 7 8 8 6 5 4 4 5 5 5 6 9 12 10 7 6 9 10 8 9 9 7 8 8 8 8 6
20 19 12 8 8 4 7 8 8 11 6 4 6 6 5 2 5 4 2 10 6 2 4 -5 0 5 -4 6 10 2 4 6 12 14 5 0 -0 6 9 -3 -4 2 4 6 3 1 3 5 7 7 8 11 14 15 12 10 10 9 10 11 10 9 5 1 -0 2 6 5 4 6 10 11 8 7 8 8 7 6 6 5 5 6 6 6 7 7
21 22 17 11 10 6 6 8 10 10 5 5 6 3 3 3 5 4 3 8 4 5 11 4 1 -1 -5 8 18 17 15 9 9 9 4 -0 3 13 11 -4 1 13 17 18 11 2 0 3 5 6 11 14 14 13 12 13 12 10 10 9 8 7 3 1 2 6 9 6 7 11 12 10 7 8 8 6 5 5 4 3 3 5 5 5 6 7
18 20 21 16 13 10 8 8 10 10 6 7 7 2 1 4 2 -3 -3 3 11 14 8 6 10 2 -3 2 3 8 14 9 3 1 1 4 8 13 7 -2 2 9 20 26 17 6 3 3 6 10 13 11 9 10 10 11 12 10 9 8 8 9 9 10 11 11 10 7 9 12 10 9 9 8 5 4 4 4 3 4 5 6 6 7 7 7
19 17 18 19 17 12 10 10 11 11 8 8 8 1 1 5 3 2 2 -4 4 19 13 6 12 10 -2 -8 -2 13 17 9 4 1 1 6 9 7 -2 -5 -3 -0 15 22 13 9 7 4 7 12 9 4 4 8 8 9 10 9 10 10 11 13 15 17 16 13 10 8 9 10 10 10 8 5 3 3 3 2 3 5 7 7 5 6 7 7
22 19 16 22 22 14 9 10 11 11 10 9 8 1 1 4 -3 -4 11 15 4 2 3 1 12 23 11 -1 13 25 15 8 7 5 5 3 4 4 -3 -4 -0 0 11 18 9 3 0 4 13 13 5 1 4 6 7 9 10 11 11 11 11 12 14 15 15 14 13 12 11 10 9 7 4 4 4 4 4 4 5 9 9 6 4 4 6 8
17 20 17 21 24 17 11 10 10 10 11 11 11 6 2 5 -0 -20 -22 -1 8 7 4 -8 -4 18 19 9 18 20 11 13 12 6 5 1 3 8 4 6 10 4 7 16 14 5 -1 3 11 11 5 2 4 6 7 8 10 13 15 12 11 11 12 13 12 12 11 9 7 5 5 5 5 6 6 5 5 5 5 8 7 3 3 5 5 5
13 19 17 19 24 21 14 11 10 8 10 11 12 12 4 0 8 -1 -16 -15 -11 1 19 11 -2 4 9 10 15 13 8 11 8 4 3 3 9 14 10 12 17 10 4 8 10 8 5 3 3 8 8 4 5 6 5 7 11 14 15 11 10 10 10 10 9 8 7 6 6 8 8 8 7 7 7 8 8 7 7 8 6 4 5 6 4 5
11 16 16 16 20 21 16 13 10 8 11 10 8 13 11 0 1 3 6 7 -9 -17 4 21 17 6 7 18 17 7 7 6 1 -2 -3 1 13 17 11 10 14 12 7 6 5 2 4 4 3 6 7 3 3 5 6 9 9 10 12 12 10 8 7 7 8 8 9 10 11 10 8 7 6 6 8 9 7 5 6 8 7 8 9 6 3 7
12 16 16 12 13 18 20 18 12 8 13 14 9 11 12 7 5 -2 -7 3 5 -10 -19 -4 15 7 -3 12 14 1 -2 -7 -9 -1 2 5 10 7 3 5 11 12 7 7 10 5 3 5 4 2 2 2 1 2 7 11 7 6 12 13 10 9 7 7 9 9 10 11 10 7 5 4 2 1 4 4 3 4 4 4 5 5 6 5 3 6
12 14 12 8 11 16 20 22 17 7 11 19 17 14 11 6 8 7 -2 -4 5 5 -13 -17 9 13 -1 7 14 9 6 -5 -6 9 11 7 10 6 0 2 8 10 4 3 12 12 5 4 6 4 1 0 -1 0 5 10 9 7 10 13 14 14 11 9 10 10 10 8 6 3 3 2 1 2 2 0 -0 1 -0 2 5 1 -1 4 6 8
8 9 11 14 15 16 16 22 26 14 5 11 14 13 14 9 5 7 7 0 -4 2 -2 -13 -7 -3 -7 4 11 6 8 7 4 11 9 4 11 11 5 3 2 4 4 1 6 13 7 3 7 6 1 0 0 1 2 6 12 11 9 14 17 13 8 7 8 7 5 4 3 3 2 3 4 5 3 3 7 8 3 6 11 7 5 9 9 10
10 9 10 13 14 16 14 10 16 16 4 1 5 8 12 10 6 6 8 7 0 0 4 1 0 -4 -9 -0 0 -9 1 12 9 8 9 9 11 7 2 3 1 0 5 4 5 10 5 6 12 9 2 1 1 1 0 4 14 15 12 13 12 8 6 6 5 4 3 4 5 5 6 6 7 7 6 8 11 13 11 11 13 13 13 12 9 9
16 12 6 9 8 11 14 8 12 20 16 10 6 8 14 13 9 7 6 7 4 -2 -8 -11 -3 7 9 6 -3 -10 4 14 9 7 8 7 10 9 2 2 2 2 4 4 5 2 -3 6 17 13 6 4 3 3 1 4 13 15 12 12 10 8 9 8 6 4 5 7 7 8 9 9 8 8 7 6 4 6 8 8 8 11 12 11 14 17
16 8 4 11 9 8 13 14 17 22 22 21 15 10 12 15 14 10 6 7 7 4 -0 -7 -11 -7 0 5 6 8 12 6 -0 6 7 1 6 16 14 6 1 2 4 4 4 0 -2 6 12 9 5 4 4 4 2 5 12 12 10 10 10 9 8 6 6 7 9 10 10 11 10 9 7 4 2 3 2 2 5 7 8 9 10 12 17 18
13 8 8 13 9 6 10 12 16 20 20 22 22 16 11 10 15 15 9 9 9 5 6 8 2 -9 -12 -7 -1 6 9 2 -1 5 7 1 1 11 22 19 6 1 2 3 3 0 0 6 9 7 7 7 7 5 4 8 12 10 8 10 10 9 8 6 7 9 9 9 10 11 9 7 5 1 -1 1 0 -0 2 5 6 7 8 11 15 11
10 10 12 15 12 10 10 10 14 16 19 22 21 20 18 14 16 19 15 12 12 7 3 6 8 4 2 0 -7 -11 -8 -2 3 4 5 7 4 -1 5 14 12 7 4 4 5 4 2 6 13 13 10 10 9 5 5 10 12 11 11 11 10 8 8 8 8 7 4 2 3 4 3 3 3 3 3 3 2 2 3 3 4 5 7 10 14 11
9 10 10 10 12 13 11 13 14 12 16 26 24 19 21 20 18 20 21 19 17 14 10 7 6 3 5 10 10 1 -8 -7 1 4 4 9 10 0 -2 7 11 7 5 7 10 11 7 5 10 13 10 9 10 10 13 14 12 11 11 10 9 8 8 8 8 7 3 1 -0 -2 -2 1 4 8 8 3 2 4 4 4 6 7 7 9 13 12
7 10 9 7 9 12 9 9 13 11 9 17 22 18 15 17 19 20 21 21 18 16 14 13 12 8 3 5 10 10 2 -4 -3 -0 2 7 8 4 4 11 13 7 6 13 17 15 9 3 3 8 11 11 11 12 13 13 12 12 14 13 8 4 1 -0 2 4 5 6 5 2 1 1 4 9 6 0 1 5 4 5 9 9 7 11 17 13
5 7 8 8 6 9 10 8 9 9 3 3 13 19 14 9 8 9 12 14 13 15 17 14 13 13 9 6 7 10 10 6 2 3 6 6 4 4 5 6 10 12 12 16 18 13 6 2 2 6 8 5 5 7 8 9 10 13 16 14 6 -0 -4 -5 -2 2 5 7 6 4 3 2 7 10 2 -4 -1 2 3 7 11 9 6 13 21 14
6 8 9 10 9 9 11 11 11 11 8 10 17 19 18 15 12 10 12 13 14 16 16 13 13 12 13 15 14 11 11 9 6 9 10 4 0 4 7 4 5 12 13 11 10 7 3 3 4 4 4 0 1 6 7 5 5 7 10 8 4 2 -0 -1 2 4 3 3 3 5 3 3 10 11 -0 -4 0 2 4 10 14 10 5 11 19 17
3 6 7 9 10 7 3 6 12 12 9 12 18 16 15 19 18 15 14 15 16 15 10 9 13 12 11 13 14 12 12 12 8 6 9 12 8 3 7 9 5 7 11 8 5 5 4 5 5 3 1 -2 -2 2 2 2 4 5 4 2 1 3 2 -1 1 2 3 3 3 6 6 4 8 6 -0 1 4 1 4 11 14 11 7 8 14 15
2 4 4 5 11 13 5 0 6 10 8 10 14 15 16 19 19 16 16 17 15 13 13 13 14 13 12 11 10 9 10 12 11 9 9 16 14 4 8 14 6 5 12 8 3 5 4 4 4 -1 -3 -2 -1 2 3 2 3 3 2 3 3 3 0 -3 -3 -3 -0 1 2 7 9 7 3 -0 1 7 6 1 4 10 11 11 10 10 10 13
1 3 4 2 7 12 7 0 1 5 6 7 9 9 10 18 23 17 12 13 14 14 18 21 17 15 16 15 12 10 9 9 11 14 15 15 13 7 12 14 4 1 8 5 2 4 1 3 7 3 0 2 2 4 5 1 0 1 2 5 7 3 -0 -2 -3 -2 -1 -3 -2 4 10 9 3 -1 3 8 6 2 3 6 11 14 12 10 10 12
-1 1 1 1 4 8 8 9 11 10 6 5 7 9 10 17 24 17 5 6 14 16 17 20 19 16 17 17 13 10 10 10 10 16 19 16 10 6 10 12 5 -0 2 2 2 1 -4 3 11 5 -2 -1 0 3 4 -0 -1 1 3 7 9 2 -1 -1 0 2 1 -2 -3 -2 4 9 5 0 4 8 5 3 1 3 13 20 15 9 11 12
-1 -1 1 2 2 7 10 5 3 9 13 11 9 12 16 16 18 17 9 6 12 15 15 18 21 19 17 17 14 10 11 12 12 16 20 16 10 6 6 8 7 5 5 2 1 -0 -3 2 9 2 -5 -3 1 3 3 -0 -1 1 5 10 9 1 -2 -0 1 3 3 3 0 -5 -2 7 6 3 7 7 3 3 0 3 18 27 18 10 11 12
-1 -4 2 5 -0 4 10 5 0 5 10 11 10 11 15 14 12 14 13 10 14 17 16 17 20 19 16 15 15 13 11 11 10 13 18 19 15 11 7 7 8 10 10 4 -1 1 2 3 5 3 -0 1 2 2 3 3 0 1 5 8 5 1 1 0 1 2 3 4 1 -5 -1 7 7 6 8 5 3 5 3 8 25 28 15 9 11 11
2 -5 -3 4 4 2 5 7 6 1 0 10 17 14 12 13 12 10 6 7 16 18 14 14 17 16 15 15 15 14 13 12 12 15 17 17 17 15 10 9 9 6 4 3 2 2 4 3 5 5 2 1 3 4 5 3 -0 2 8 8 3 1 2 2 2 3 2 2 -1 -3 2 6 5 7 8 4 7 13 13 19 28 22 10 9 12 11
5 -1 -4 1 3 0 -1 5 9 2 -3 7 14 11 10 11 12 12 5 -0 8 14 14 16 17 14 12 13 14 17 16 12 12 16 14 10 17 21 12 5 7 3 -1 2 4 4 5 5 5 6 6 4 3 4 4 3 3 7 9 5 2 3 3 2 1 -1 -0 1 -1 -1 2 3 5 9 5 1 11 25 25 22 21 15 10 9 10 10
3 -0 4 7 7 6 2 2 9 11 6 0 -5 2 16 15 10 14 11 1 3 10 12 14 16 16 16 16 16 19 19 12 10 14 12 8 17 22 11 2 2 -0 -2 1 1 0 4 5 5 8 9 7 5 4 5 6 7 10 10 5 4 5 2 -2 -3 -2 2 3 1 3 4 -2 2 11 4 -1 19 36 28 16 13 10 8 8 9 10
9 -0 4 7 6 10 11 8 11 16 13 4 -2 8 25 23 9 10 13 8 7 9 8 10 15 18 21 24 24 24 23 18 12 10 9 9 13 18 16 10 6 1 1 2 2 1 1 2 4 8 9 10 10 8 7 8 10 11 8 3 1 1 -3 -2 2 5 8 5 3 9 7 -4 1 15 11 7 25 32 16 7 8 6 6 9 10 9
20 6 2 6 4 4 6 9 10 6 4 8 11 16 23 20 9 8 13 15 14 11 10 12 15 18 24 30 30 29 29 25 16 11 12 10 8 10 16 17 12 6 3 4 4 1 -1 1 5 7 6 8 10 8 9 12 12 6 -0 -3 0 3 4 6 11 10 5 2 5 12 8 -2 5 20 19 16 22 19 7 5 8 6 9 12 10 9
28 21 8 7 8 6 7 11 12 7 7 14 16 15 18 17 10 9 13 18 19 13 5 7 15 21 25 23 21 26 29 24 15 11 12 11 7 7 11 14 12 8 5 5 4 1 1 5 9 10 10 7 6 10 12 10 4 -0 2 7 8 8 7 7 10 12 7 3 5 8 8 8 16 24 20 14 13 9 6 8 9 9 12 12 9 10
14 24 19 10 5 6 12 19 20 15 14 16 14 14 20 18 9 7 12 18 22 15 8 14 24 24 19 14 16 21 19 12 12 16 15 14 14 12 10 9 10 7 2 3 6 7 9 9 8 11 13 10 12 15 8 1 2 6 9 11 10 9 9 10 14 18 15 10 10 13 17 23 26 22 13 7 6 7 8 10 11 12 13 11 10 11
0 8 16 16 9 4 4 9 12 11 10 15 16 18 22 15 4 6 15 20 20 14 13 22 25 19 16 18 19 17 11 6 10 17 17 15 17 17 14 12 11 7 4 6 11 14 15 16 17 17 13 11 13 7 -5 -5 7 10 7 8 12 13 15 17 19 20 17 16 17 19 21 24 22 15 7 3 5 8 9 11 13 13 10 9 10 10
9 6 7 8 8 9 9 9 11 10 9 13 20 24 23 13 5 11 23 24 16 9 11 22 23 15 16 18 13 11 12 9 8 10 10 10 11 11 11 10 10 11 12 14 13 5 -1 2 6 3 2 -1 -10 -15 -9 3 8 5 5 11 12 8 8 12 15 16 16 16 15 14 16 16 13 8 5 6 10 11 10 11 11 7 7 11 12 8
12 11 10 11 9 11 15 16 17 17 14 15 24 31 28 18 11 14 20 21 16 8 9 20 22 12 7 7 4 4 9 8 7 9 9 7 7 8 7 7 7 8 7 5 0 -8 -9 -3 0 5 20 26 11 1 10 10 -1 -1 9 12 6 2 4 8 11 12 12 11 9 10 11 9 8 8 8 11 10 8 7 8 5 6 15 22 19 11
6 5 6 11 12 9 10 11 14 20 22 23 30 32 25 21 24 24 17 13 15 11 8 13 16 9 4 3 1 3 7 8 9 12 10 3 0 2 3 2 2 2 0 -2 -1 2 9 13 8 6 21 32 25 15 10 -1 -6 5 14 8 3 4 7 8 10 11 10 8 8 8 7 8 10 9 8 9 8 7 9 6 4 13 27 37 35 21
10 8 3 4 4 3 3 3 8 16 21 26 32 22 1 -0 18 28 20 10 8 9 7 7 9 10 8 4 2 3 5 5 3 3 2 -1 -4 -4 -1 1 2 4 5 3 4 9 13 12 5 1 4 8 8 5 -0 -2 7 14 11 4 4 7 7 8 9 9 7 6 7 7 7 9 9 6 7 9 8 7 6 3 7 22 32 35 30 9
Height
5883 5884 5885 5886 5889 5892 5895 5897 5900 5903 5904 5906 5908 5908 5910 5911 5912 5912 5911 5912 5912 5913 5914 5914 5915 5916 5916 5917 5917 5917 5916 5916 5916 5915 5916 5917 5918 5920 5920 5921 5921 5921 5921 5921 5922 5922 5923 5923 5924 5925 5925 5926 5926 5927 5927 5928 5928 5929 5930 5930 5931 5932 5932 5933 5933 5934 5934 5934 5934 5934 5934 5934 5934 5934 5934 5934 5934 5934 5934 5934 5935 5935 5934 5934 5934 5934
5879 5881 5883 5885 5888 5891 5893 5896 5898 5900 5902 5904 5905 5907 5908 5910 5913 5912 5909 5910 5911 5912 5912 5913 5914 5914 5915 5915 5915 5916 5916 5916 5916 5915 5916 5916 5917 5919 5920 5921 5921 5922 5922 5922 5922 5922 5922 5923 5923 5924 5924 5925 5925 5926 5926 5927 5927 5928 5929 5930 5930 5931 5931 5932 5932 5933 5933 5933 5933 5933 5933 5933 5933 5933 5934 5934 5934 5934 5934 5934 5934 5934 5934 5933 5933 5933
5875 5878 5882 5884 5886 5888 5890 5893 5895 5897 5899 5901 5903 5905 5906 5908 5910 5908 5907 5909 5909 5910 5911 5912 5913 5913 5914 5914 5914 5914 5915 5915 5915 5915 5915 5916 5916 5918 5919 5920 5921 5921 5922 5922 5922 5922 5922 5922 5923 5923 5924 5924 5925 5925 5926 5926 5927 5927 5928 5929 5929 5930 5931 5931 5931 5932 5932 5932 5932 5932 5932 5933 5933 5933 5933 5933 5933 5933 5933 5933 5933 5933 5932 5932 5932 5931
5872 5876 5880 5881 5883 5885 5887 5890 5892 5894 5896 5897 5900 5901 5904 5906 5906 5905 5906 5908 5908 5908 5910 5911 5912 5912 5912 5912 5913 5913 5913 5914 5915 5914 5914 5915 5915 5917 5918 5919 5920 5920 5921 5921 5922 5922 5922 5922 5922 5923 5923 5924 5924 5924 5925 5925 5926 5926 5927 5927 5928 5929 5930 5930 5930 5931 5931 5931 5931 5931 5932 5932 5932 5932 5932 5932 5932 5932 5932 5932 5931 5931 5931 5930 5930 5929
5869 5873 5877 5877 5879 5882 5884 5886 5888 5890 5893 5895 5897 5899 5902 5904 5904 5905 5905 5905 5906 5906 5908 5909 5909 5910 5910 5911 5912 5912 5912 5913 5913 5913 5913 5914 5914 5915 5916 5917 5918 5919 5920 5920 5921 5921 5922 5922 5922 5922 5923 5923 5923 5923 5924 5924 5925 5925 5926 5926 5927 5928 5928 5929 5929 5930 5930 5930 5930 5930 5930 5930 5931 5931 5931 5931 5931 5931 5930 5930 5930 5929 5928 5928 5928 5927
5865 5868 5872 5873 5876 5879 5881 5882 5885 5888 5891 5893 5895 5898 5901 5902 5903 5904 5903 5903 5904 5904 5906 5907 5907 5908 5910 5910 5911 5911 5911 5911 5912 5912 5912 5912 5913 5914 5915 5916 5917 5918 5918 5919 5919 5920 5921 5921 5921 5922 5922 5922 5922 5922 5922 5923 5924 5924 5925 5925 5926 5927 5927 5928 5928 5929 5929 5929 5929 5929 5929 5929 5929 5929 5929 5929 5929 5929 5928 5928 5927 5927 5926 5926 5926 5925
5860 5863 5868 5870 5872 5876 5877 5879 5882 5885 5888 5890 5894 5897 5898 5899 5901 5901 5900 5901 5903 5903 5904 5904 5905 5907 5908 5908 5909 5909 5909 5909 5909 5910 5911 5911 5912 5912 5913 5914 5915 5916 5917 5917 5918 5918 5919 5920 5920 5921 5921 5921 5921 5921 5922 5922 5923 5923 5924 5924 5925 5925 5926 5926 5927 5927 5928 5928 5928 5928 5928 5928 5928 5928 5928 5927 5927 5926 5926 5925 5925 5924 5924 5924 5924 5923
5856 5860 5866 5868 5868 5871 5872 5876 5880 5882 5885 5889 5892 5894 5895 5897 5898 5898 5899 5899 5900 5901 5901 5902 5903 5904 5904 5905 5906 5907 5907 5907 5908 5909 5910 5910 5911 5911 5912 5913 5914 5915 5915 5916 5916 5917 5918 5918 5919 5919 5920 5920 5920 5921 5921 5921 5922 5922 5923 5923 5924 5924 5924 5925 5925 5926 5926 5926 5926 5926 5926 5926 5927 5926 5926 5925 5925 5924 5924 5923 5923 5922 5922 5922 5921 5920
5854 5858 5862 5864 5865 5866 5869 5874 5877 5879 5882 5887 5888 5889 5891 5894 5895 5896 5897 5897 5898 5898 5897 5899 5900 5900 5901 5902 5903 5904 5905 5906 5907 5907 5908 5909 5909 5910 5911 5911 5912 5913 5914 5914 5915 5915 5916 5917 5917 5918 5919 5919 5920 5920 5920 5920 5921 5921 5922 5922 5922 5923 5923 5923 5924 5924 5925 5925 5925 5925 5925 5925 5925 5925 5924 5923 5923 5922 5921 5921 5921 5920 5920 5919 5919 5918
5848 5852 5857 5859 5859 5862 5867 5872 5873 5874 5879 5882 5883 5886 5889 5891 5892 5893 5894 5894 5896 5894 5893 5897 5897 5896 5899 5900 5901 5902 5903 5905 5906 5906 5907 5907 5907 5908 5909 5910 5910 5911 5912 5912 5913 5913 5914 5915 5916 5916 5917 5918 5918 5918 5918 5919 5919 5919 5920 5920 5921 5921 5921 5922 5922 5923 5923 5923 5923 5923 5923 5923 5923 5923 5922 5921 5921 5920 5919 5919 5919 5918 5918 5917 5917 5916
5841 5846 5850 5852 5854 5858 5864 5867 5867 5870 5875 5877 5879 5883 5886 5887 5888 5889 5890 5891 5892 5889 5890 5893 5894 5894 5896 5898 5899 5900 5902 5904 5904 5904 5905 5905 5906 5907 5907 5907 5908 5909 5909 5910 5911 5911 5912 5912 5913 5914 5915 5916 5916 5916 5916 5916 5917 5917 5917 5918 5919 5919 5920 5920 5920 5921 5921 5921 5921 5921 5921 5921 5921 5921 5920 5920 5919 5918 5918 5917 5917 5916 5916 5915 5915 5915
5837 5841 5846 5847 5850 5854 5858 5861 5862 5868 5872 5872 5875 5879 5881 5882 5883 5885 5885 5886 5884 5883 5886 5891 5892 5891 5892 5895 5897 5897 5900 5901 5901 5902 5903 5903 5904 5905 5905 5905 5905 5906 5907 5907 5908 5909 5909 5910 5911 5912 5912 5913 5913 5913 5914 5914 5914 5915 5915 5916 5917 5917 5918 5918 5918 5919 5919 5919 5919 5919 5919 5919 5919 5918 5918 5918 5917 5916 5916 5915 5915 5915 5914 5914 5913 5913
5833 5838 5842 5844 5846 5849 5852 5855 5859 5864 5866 5867 5870 5874 5875 5877 5878 5879 5879 5879 5878 5879 5885 5890 5889 5886 5888 5893 5895 5895 5897 5899 5899 5901 5901 5902 5902 5903 5903 5903 5903 5903 5903 5904 5905 5906 5907 5907 5908 5909 5910 5910 5911 5910 5911 5911 5912 5913 5913 5914 5914 5915 5915 5916 5916 5916 5916 5917 5917 5917 5917 5917 5917 5916 5916 5916 5915 5915 5914 5914 5913 5913 5913 5912 5911 5911
5829 5832 5836 5839 5842 5844 5846 5849 5854 5857 5859 5862 5865 5867 5869 5872 5872 5873 5875 5875 5876 5879 5883 5886 5884 5883 5886 5891 5893 5893 5896 5897 5897 5899 5899 5900 5901 5901 5902 5902 5902 5902 5901 5901 5902 5903 5904 5905 5905 5906 5907 5908 5908 5908 5908 5909 5910 5910 5911 5911 5912 5912 5913 5913 5914 5914 5914 5914 5915 5915 5915 5915 5914 5915 5914 5914 5913 5913 5913 5912 5912 5911 5911 5910 5910 5909
5824 5826 5830 5834 5837 5839 5841 5844 5849 5853 5856 5858 5863 5865 5865 5867 5869 5870 5872 5874 5876 5879 5881 5880 5878 5880 5885 5889 5891 5893 5894 5895 5895 5896 5897 5898 5900 5900 5901 5901 5901 5902 5901 5901 5901 5901 5902 5903 5903 5904 5905 5906 5906 5906 5907 5907 5908 5908 5909 5909 5909 5910 5911 5911 5911 5911 5912 5912 5912 5912 5912 5912 5912 5912 5912 5912 5911 5911 5911 5910 5910 5909 5909 5908 5907 5906
5819 5822 5825 5830 5834 5836 5837 5841 5845 5848 5851 5855 5860 5859 5859 5864 5867 5869 5870 5874 5876 5877 5877 5874 5872 5879 5884 5885 5889 5892 5891 5891 5892 5894 5895 5897 5898 5899 5899 5900 5901 5902 5902 5901 5901 5901 5901 5901 5902 5902 5903 5904 5904 5905 5905 5906 5906 5906 5906 5907 5907 5908 5908 5909 5909 5909 5909 5909 5910 5910 5910 5910 5910 5910 5910 5910 5909 5909 5909 5908 5908 5907 5906 5905 5904 5903
5816 5818 5819 5824 5829 5830 5833 5838 5840 5842 5846 5850 5852 5852 5856 5863 5865 5867 5869 5872 5872 5871 5872 5870 5869 5877 5881 5881 5886 5889 5886 5888 5889 5891 5893 5894 5895 5897 5898 5899 5900 5900 5901 5901 5901 5900 5900 5900 5900 5901 5902 5902 5902 5903 5904 5904 5904 5904 5904 5905 5905 5905 5906 5906 5906 5906 5906 5907 5907 5907 5907 5907 5908 5908 5908 5908 5907 5907 5907 5906 5905 5905 5904 5903 5902 5901
5812 5814 5813 5818 5824 5826 5829 5834 5835 5838 5842 5844 5847 5850 5855 5857 5858 5862 5865 5865 5865 5865 5868 5868 5868 5873 5876 5877 5883 5885 5883 5885 5887 5889 5891 5892 5893 5895 5896 5897 5899 5899 5899 5899 5900 5899 5899 5900 5900 5900 5900 5900 5901 5902 5902 5902 5902 5902 5902 5902 5903 5903 5903 5903 5903 5903 5904 5904 5904 5905 5905 5905 5906 5906 5906 5905 5905 5905 5904 5903 5902 5901 5900 5900 5899 5898
5807 5810 5810 5812 5819 5821 5824 5827 5828 5831 5837 5841 5844 5847 5849 5849 5851 5854 5856 5857 5860 5860 5862 5865 5866 5867 5870 5874 5880 5881 5882 5884 5885 5887 5889 5889 5891 5893 5895 5896 5897 5898 5898 5898 5898 5898 5898 5899 5899 5899 5899 5899 5899 5900 5900 5900 5900 5901 5901 5900 5901 5901 5901 5901 5901 5901 5901 5901 5902 5902 5902 5903 5904 5904 5904 5904 5903 5902 5901 5900 5899 5898 5897 5896 5895 5894
5801 5806 5807 5807 5812 5816 5816 5819 5821 5824 5831 5835 5836 5839 5842 5844 5846 5849 5849 5852 5856 5857 5859 5862 5862 5861 5865 5872 5876 5878 5880 5881 5882 5884 5885 5886 5888 5889 5892 5894 5895 5896 5896 5896 5897 5897 5897 5897 5898 5898 5898 5898 5898 5898 5898 5898 5898 5899 5898 5898 5899 5898 5898 5899 5899 5899 5899 5899 5899 5900 5900 5901 5902 5902 5902 5901 5900 5899 5898 5897 5895 5894 5893 5892 5891 5890
5796 5801 5804 5803 5805 5808 5809 5812 5817 5821 5825 5826 5827 5831 5836 5837 5840 5845 5845 5847 5851 5855 5857 5857 5856 5858 5863 5868 5872 5875 5877 5878 5879 5881 5883 5884 5885 5886 5888 5890 5892 5893 5894 5895 5895 5895 5895 5896 5896 5896 5896 5896 5896 5896 5896 5896 5897 5897 5897 5897 5896 5896 5896 5896 5896 5897 5897 5897 5898 5898 5899 5899 5900 5900 5899 5898 5897 5896 5895 5894 5893 5891 5890 5889 5887 5886
5791 5795 5800 5798 5799 5803 5807 5810 5815 5818 5819 5821 5824 5828 5831 5832 5836 5840 5838 5840 5845 5849 5851 5852 5851 5855 5861 5863 5866 5871 5873 5875 5877 5879 5880 5882 5882 5883 5885 5887 5889 5890 5891 5892 5893 5893 5893 5893 5894 5893 5894 5894 5894 5894 5894 5894 5894 5894 5895 5894 5894 5894 5894 5894 5894 5895 5895 5895 5896 5896 5897 5897 5897 5896 5895 5895 5894 5893 5893 5892 5891 5889 5888 5886 5885 5884
5787 5789 5793 5795 5796 5801 5805 5807 5809 5812 5814 5817 5819 5823 5827 5828 5831 5833 5832 5837 5842 5842 5846 5849 5846 5850 5858 5858 5859 5865 5868 5871 5873 5875 5876 5878 5880 5880 5882 5885 5886 5887 5888 5889 5890 5890 5890 5890 5891 5891 5891 5892 5892 5892 5892 5892 5892 5892 5892 5892 5892 5892 5892 5892 5893 5893 5893 5894 5894 5894 5895 5895 5894 5893 5893 5892 5891 5891 5890 5890 5888 5887 5885 5884 5882 5880
5782 5783 5787 5792 5794 5796 5800 5802 5803 5805 5808 5810 5811 5816 5821 5822 5826 5829 5831 5836 5838 5837 5841 5844 5839 5842 5851 5853 5855 5860 5864 5867 5869 5870 5872 5874 5876 5877 5879 5881 5883 5884 5886 5886 5887 5887 5887 5888 5889 5889 5889 5890 5890 5890 5890 5891 5890 5890 5890 5890 5890 5890 5890 5891 5891 5892 5892 5892 5892 5892 5892 5892 5891 5890 5890 5889 5889 5889 5888 5887 5885 5883 5882 5880 5878 5876
5777 5779 5782 5787 5789 5790 5794 5795 5795 5797 5801 5804 5807 5810 5814 5818 5822 5825 5828 5831 5831 5830 5836 5837 5832 5837 5847 5849 5852 5856 5860 5864 5866 5867 5869 5870 5871 5873 5875 5878 5880 5881 5883 5883 5884 5884 5884 5885 5886 5887 5887 5887 5888 5888 5888 5888 5888 5888 5888 5888 5888 5888 5888 5889 5890 5890 5890 5890 5890 5890 5889 5889 5888 5887 5887 5886 5886 5886 5885 5884 5882 5879 5878 5877 5875 5873
5774 5775 5776 5779 5782 5784 5787 5789 5791 5795 5799 5801 5804 5805 5808 5812 5816 5819 5822 5823 5820 5822 5828 5827 5826 5836 5845 5845 5847 5851 5855 5859 5862 5863 5865 5866 5869 5870 5872 5874 5876 5877 5879 5880 5881 5881 5882 5883 5884 5884 5885 5885 5885 5885 5885 5886 5886 5886 5886 5886 5886 5886 5887 5887 5888 5888 5888 5888 5887 5887 5886 5886 5885 5885 5884 5883 5883 5882 5881 5880 5879 5877 5875 5873 5871 5869
5770 5770 5770 5774 5777 5779 5783 5787 5790 5793 5795 5796 5799 5801 5803 5805 5810 5814 5814 5813 5815 5818 5819 5819 5824 5833 5839 5840 5843 5846 5850 5854 5857 5859 5861 5863 5866 5868 5869 5871 5872 5873 5875 5877 5878 5878 5879 5880 5881 5881 5882 5882 5882 5883 5883 5883 5883 5883 5884 5884 5884 5884 5885 5885 5885 5885 5885 5884 5884 5883 5883 5883 5883 5882 5881 5880 5880 5880 5878 5876 5876 5874 5872 5870 5868 5866
5764 5765 5766 5770 5773 5775 5780 5784 5786 5787 5788 5791 5794 5797 5798 5799 5803 5806 5805 5808 5814 5813 5810 5814 5821 5825 5830 5836 5839 5840 5844 5849 5853 5855 5857 5859 5861 5863 5865 5867 5869 5870 5871 5873 5874 5875 5876 5877 5878 5878 5879 5879 5879 5880 5880 5880 5880 5881 5881 5881 5882 5882 5882 5882 5883 5882 5882 5881 5881 5880 5880 5880 5880 5879 5878 5877 5877 5877 5876 5874 5873 5872 5870 5867 5865 5863
5760 5761 5764 5766 5768 5771 5775 5778 5782 5783 5784 5787 5789 5790 5793 5795 5796 5798 5800 5805 5809 5807 5806 5812 5815 5816 5823 5831 5835 5837 5840 5844 5848 5851 5853 5854 5856 5858 5860 5862 5865 5866 5868 5869 5870 5871 5873 5874 5874 5875 5876 5876 5876 5876 5877 5877 5878 5878 5878 5878 5879 5879 5880 5880 5880 5879 5879 5878 5878 5877 5878 5878 5877 5876 5875 5874 5874 5874 5872 5871 5869 5868 5867 5864 5861 5859
5755 5757 5760 5762 5763 5766 5769 5772 5776 5778 5779 5782 5783 5785 5788 5789 5790 5792 5795 5800 5803 5803 5805 5810 5810 5811 5816 5824 5831 5834 5835 5838 5842 5846 5847 5849 5851 5853 5855 5858 5860 5862 5864 5865 5866 5868 5869 5870 5871 5872 5872 5872 5873 5874 5874 5875 5875 5875 5875 5875 5876 5876 5877 5877 5876 5876 5876 5875 5875 5875 5875 5874 5874 5873 5872 5871 5870 5869 5868 5867 5865 5864 5862 5860 5858 5855
5751 5753 5755 5757 5758 5760 5763 5767 5769 5772 5775 5777 5778 5780 5782 5784 5785 5787 5789 5793 5796 5798 5802 5805 5805 5805 5811 5818 5825 5830 5831 5833 5836 5839 5842 5844 5845 5848 5852 5854 5856 5858 5860 5861 5862 5864 5866 5867 5867 5868 5868 5869 5870 5871 5871 5871 5872 5872 5872 5873 5873 5874 5874 5874 5873 5873 5873 5872 5872 5872 5871 5870 5870 5869 5869 5867 5866 5864 5863 5863 5861 5860 5858 5856 5854 5851
5745 5748 5750 5752 5754 5756 5759 5763 5765 5767 5770 5771 5771 5774 5776 5778 5780 5782 5783 5786 5789 5793 5797 5798 5798 5801 5807 5813 5818 5823 5827 5828 5830 5833 5837 5839 5841 5844 5847 5850 5853 5854 5856 5858 5859 5861 5862 5863 5864 5865 5865 5866 5867 5867 5868 5868 5868 5869 5869 5870 5870 5871 5871 5871 5870 5870 5869 5869 5869 5868 5867 5866 5866 5866 5865 5863 5862 5860 5858 5857 5856 5854 5853 5851 5849 5847
5740 5743 5745 5747 5749 5752 5756 5758 5760 5762 5762 5762 5765 5769 5772 5773 5776 5778 5779 5781 5783 5787 5790 5791 5793 5799 5804 5807 5811 5816 5820 5822 5824 5828 5832 5834 5838 5840 5843 5846 5849 5850 5852 5854 5856 5857 5859 5860 5861 5861 5862 5862 5863 5864 5864 5864 5865 5866 5866 5867 5867 5867 5867 5867 5867 5866 5866 5866 5865 5865 5864 5862 5862 5862 5861 5859 5858 5856 5854 5852 5851 5849 5847 5846 5845 5843
5735 5738 5740 5742 5745 5749 5752 5753 5754 5755 5755 5757 5762 5767 5768 5770 5771 5772 5774 5777 5779 5781 5783 5786 5790 5795 5797 5800 5805 5809 5812 5816 5819 5823 5827 5830 5834 5836 5838 5842 5844 5846 5848 5850 5852 5854 5855 5856 5857 5857 5858 5858 5859 5859 5860 5860 5861 5862 5863 5863 5863 5863 5863 5863 5863 5863 5862 5862 5862 5861 5860 5859 5858 5857 5856 5855 5853 5851 5850 5848 5846 5844 5843 5841 5840 5838
5730 5733 5735 5737 5741 5745 5747 5747 5748 5749 5752 5755 5758 5760 5762 5764 5766 5767 5769 5771 5773 5775 5778 5781 5786 5789 5791 5796 5800 5803 5806 5810 5813 5817 5821 5825 5828 5831 5834 5837 5840 5842 5844 5846 5848 5850 5851 5853 5853 5853 5854 5854 5854 5855 5856 5857 5857 5858 5859 5860 5860 5859 5859 5859 5859 5859 5859 5858 5858 5857 5856 5855 5854 5853 5852 5851 5849 5847 5845 5843 5841 5839 5838 5836 5835 5833
5724 5728 5731 5733 5736 5739 5741 5741 5742 5745 5749 5751 5752 5753 5755 5758 5761 5762 5762 5765 5768 5770 5773 5777 5781 5785 5788 5792 5795 5797 5801 5804 5807 5811 5816 5819 5823 5826 5828 5832 5835 5838 5840 5842 5844 5845 5847 5849 5850 5849 5849 5849 5850 5850 5852 5853 5854 5855 5855 5856 5856 5856 5855 5855 5855 5855 5855 5854 5854 5853 5852 5851 5850 5849 5847 5846 5844 5842 5840 5838 5836 5834 5832 5831 5830 5828
5719 5723 5726 5729 5731 5733 5734 5736 5738 5741 5744 5745 5745 5747 5750 5754 5757 5757 5758 5760 5764 5767 5769 5772 5776 5780 5784 5787 5789 5792 5796 5799 5802 5806 5811 5815 5819 5821 5823 5827 5830 5833 5835 5837 5839 5841 5843 5845 5845 5844 5844 5844 5845 5847 5848 5849 5850 5851 5852 5852 5852 5852 5852 5851 5851 5851 5850 5850 5849 5848 5848 5846 5845 5844 5842 5840 5839 5837 5835 5833 5831 5829 5827 5826 5824 5822
5714 5718 5721 5724 5726 5728 5730 5731 5734 5736 5738 5739 5740 5743 5746 5749 5753 5754 5755 5757 5761 5764 5766 5768 5772 5776 5780 5782 5784 5788 5792 5794 5797 5802 5807 5811 5814 5817 5819 5822 5825 5828 5831 5832 5834 5837 5838 5840 5840 5839 5839 5840 5842 5843 5844 5846 5847 5848 5848 5848 5848 5848 5847 5847 5847 5847 5846 5846 5845 5844 5843 5841 5840 5838 5836 5835 5833 5831 5829 5827 5825 5823 5821 5820 5818 5817
5709 5712 5716 5719 5721 5723 5725 5726 5728 5731 5733 5733 5735 5739 5742 5745 5748 5750 5751 5753 5757 5761 5763 5765 5767 5771 5775 5777 5779 5783 5786 5788 5793 5798 5803 5807 5810 5812 5814 5817 5820 5824 5826 5828 5830 5832 5833 5835 5836 5835 5835 5836 5838 5840 5841 5842 5843 5844 5844 5844 5844 5843 5843 5843 5843 5842 5842 5841 5840 5839 5837 5836 5834 5832 5831 5829 5826 5824 5823 5821 5819 5817 5816 5815 5813 5811
5703 5707 5710 5713 5715 5718 5719 5720 5723 5726 5727 5728 5731 5735 5739 5741 5744 5746 5746 5748 5753 5757 5758 5760 5762 5766 5770 5772 5774 5778 5782 5785 5790 5794 5799 5803 5805 5807 5810 5813 5816 5819 5822 5824 5826 5827 5829 5830 5831 5831 5832 5833 5834 5836 5837 5838 5839 5839 5840 5839 5839 5838 5838 5838 5838 5838 5837 5836 5835 5834 5832 5830 5829 5826 5825 5823 5820 5818 5817 5815 5813 5811 5810 5809 5808 5806
5699 5702 5705 5708 5710 5713 5715 5716 5718 5721 5723 5725 5729 5733 5736 5739 5741 5741 5742 5745 5750 5752 5754 5756 5758 5761 5764 5766 5770 5774 5778 5781 5785 5790 5794 5798 5800 5803 5806 5809 5811 5814 5817 5819 5821 5822 5824 5826 5826 5828 5829 5830 5831 5832 5833 5833 5834 5834 5834 5834 5833 5833 5834 5834 5833 5833 5832 5831 5829 5828 5826 5824 5823 5820 5819 5817 5814 5811 5810 5809 5807 5805 5804 5803 5802 5801
5694 5698 5701 5703 5706 5708 5710 5712 5714 5716 5718 5722 5727 5730 5732 5735 5736 5737 5741 5744 5746 5749 5751 5753 5755 5757 5759 5762 5766 5770 5773 5777 5781 5785 5790 5793 5795 5798 5802 5804 5807 5810 5812 5814 5816 5818 5820 5821 5823 5824 5825 5826 5827 5828 5828 5829 5829 5829 5829 5829 5828 5828 5829 5829 5828 5827 5826 5825 5823 5821 5820 5818 5817 5814 5812 5810 5808 5805 5804 5803 5802 5800 5799 5798 5797 5796
5690 5694 5697 5699 5701 5704 5706 5707 5709 5710 5713 5719 5724 5726 5727 5730 5732 5735 5739 5741 5742 5745 5747 5749 5751 5753 5755 5758 5761 5765 5769 5773 5777 5781 5785 5788 5791 5794 5797 5800 5803 5806 5808 5810 5812 5813 5815 5817 5818 5820 5821 5821 5822 5823 5823 5824 5823 5824 5824 5824 5824 5824 5824 5823 5822 5821 5820 5819 5817 5815 5814 5812 5810 5808 5806 5804 5802 5800 5799 5798 5797 5796 5795 5794 5793 5791
5685 5689 5692 5694 5697 5700 5702 5702 5704 5708 5712 5717 5721 5721 5723 5726 5729 5732 5735 5736 5739 5741 5743 5745 5747 5749 5751 5754 5756 5760 5765 5769 5772 5777 5780 5783 5786 5789 5792 5796 5799 5801 5803 5805 5807 5809 5811 5812 5813 5814 5815 5816 5817 5817 5818 5818 5818 5819 5819 5819 5819 5819 5818 5817 5816 5815 5813 5812 5810 5809 5807 5805 5804 5802 5800 5799 5797 5796 5794 5793 5792 5791 5790 5789 5788 5787
5679 5683 5686 5689 5693 5696 5698 5699 5701 5705 5709 5712 5715 5717 5719 5721 5725 5727 5730 5732 5734 5736 5738 5741 5743 5745 5747 5750 5753 5757 5761 5765 5768 5772 5775 5778 5781 5784 5787 5790 5793 5796 5798 5800 5802 5804 5805 5806 5808 5809 5809 5810 5810 5810 5811 5812 5813 5814 5814 5814 5814 5813 5812 5811 5810 5808 5807 5806 5804 5803 5801 5799 5798 5796 5795 5794 5792 5791 5789 5788 5787 5786 5785 5784 5783 5781
5675 5680 5683 5686 5689 5691 5693 5695 5699 5701 5704 5706 5709 5711 5713 5716 5720 5723 5726 5728 5730 5731 5734 5737 5740 5741 5743 5746 5750 5753 5757 5761 5764 5768 5770 5774 5777 5779 5782 5785 5788 5790 5793 5795 5797 5798 5799 5800 5802 5803 5804 5804 5803 5803 5804 5806 5807 5808 5808 5808 5807 5807 5806 5805 5804 5802 5801 5800 5798 5796 5794 5793 5792 5790 5789 5788 5787 5786 5784 5783 5781 5780 5779 5778 5777 5776
5672 5676 5679 5682 5685 5687 5688 5692 5695 5697 5699 5702 5704 5706 5708 5711 5715 5719 5722 5724 5726 5728 5730 5733 5735 5738 5741 5744 5747 5751 5754 5758 5761 5763 5766 5769 5772 5775 5778 5781 5783 5786 5788 5790 5791 5792 5793 5794 5795 5797 5798 5797 5797 5797 5799 5800 5801 5802 5802 5801 5801 5800 5800 5799 5798 5796 5795 5793 5792 5790 5788 5787 5785 5784 5783 5782 5781 5780 5779 5777 5776 5775 5774 5773 5772 5770
5668 5672 5675 5678 5682 5684 5685 5689 5692 5693 5695 5699 5700 5701 5704 5707 5711 5714 5717 5719 5722 5724 5726 5729 5731 5734 5737 5741 5744 5748 5751 5754 5756 5759 5762 5764 5767 5770 5773 5775 5778 5780 5782 5784 5785 5786 5786 5787 5789 5791 5791 5790 5790 5791 5793 5794 5795 5795 5795 5795 5794 5794 5793 5793 5791 5790 5788 5786 5785 5783 5782 5781 5780 5779 5777 5776 5776 5775 5773 5772 5771 5769 5768 5767 5766 5764
5665 5668 5672 5676 5680 5681 5682 5685 5688 5689 5692 5695 5696 5697 5701 5704 5706 5710 5712 5715 5718 5721 5723 5725 5728 5730 5732 5735 5739 5743 5747 5750 5752 5755 5757 5759 5762 5765 5768 5770 5773 5775 5777 5779 5780 5781 5782 5783 5785 5786 5785 5784 5785 5786 5788 5788 5789 5789 5789 5788 5787 5787 5786 5786 5784 5783 5782 5780 5779 5777 5776 5775 5774 5773 5772 5771 5770 5769 5768 5766 5765 5763 5762 5760 5759 5758
5661 5665 5670 5673 5675 5677 5679 5682 5684 5685 5688 5690 5692 5695 5698 5700 5702 5705 5708 5710 5714 5716 5719 5722 5724 5726 5728 5731 5734 5738 5741 5744 5747 5750 5752 5755 5758 5760 5763 5765 5767 5770 5772 5773 5775 5776 5777 5778 5779 5780 5779 5779 5780 5781 5781 5782 5782 5782 5782 5781 5781 5780 5779 5779 5778 5776 5775 5774 5773 5772 5771 5770 5769 5768 5767 5766 5765 5764 5762 5760 5758 5756 5754 5752 5752 5752
5657 5661 5666 5668 5670 5673 5676 5679 5680 5682 5684 5686 5688 5691 5694 5696 5698 5700 5703 5706 5709 5711 5714 5717 5720 5722 5723 5725 5729 5733 5736 5739 5743 5745 5748 5750 5753 5755 5757 5759 5761 5764 5766 5767 5769 5770 5771 5772 5773 5774 5774 5774 5774 5775 5776 5776 5776 5776 5775 5775 5774 5773 5773 5772 5771 5770 5769 5769 5768 5766 5765 5764 5764 5763 5761 5760 5759 5758 5756 5754 5752 5750 5748 5747 5747 5747